Regional Weather Roundup
Issued by NWS

Home | Current Version | Previous Version | Graphics & Text | Print | Product List | Glossary On
Versions: 1 2 3 4 5 6 7 8 9 10 11 12 13 14 15 16 17 18 19 20 21 22 23 24 25 26 27 28 29 30 31 32 33 34 35 36 37 38 39 40 41 42 43 44 45 46 47 48 49 50
000
ASUS43 KLSX 190507
RWRMO

WEATHER SUMMARY FOR MISSOURI
NATIONAL WEATHER SERVICE SPRINGFIELD MO
1200 AM CDT SAT APR 19 2014

NOTE: "FAIR" INDICATES FEW OR NO CLOUDS BELOW 12,000 FEET WITH NO
       SIGNIFICANT WEATHER AND/OR OBSTRUCTIONS TO VISIBILITY.
       CURRENT SKY AND/OR WEATHER CONDITIONS ARE NOT AVAILABLE FOR
       CHILLICOTHE AND FARMINGTON.

MOZ001>031-035>038-043-044-053-054-190600-
...NORTHERN AND WESTERN MISSOURI...

CITY           SKY/WX    TMP DP  RH WIND       PRES   REMARKS
KANSAS CTY INT PTCLDY    53  42  66 SE10      30.18S
KANSAS C DTWN  PTCLDY    60  42  51 SE9       30.17S
LEE`S SUMMIT   CLEAR     56  41  57 SE6       30.19S
ST JOSEPH      PTCLDY    55  41  59 SE8       30.16S
CHILLICOTHE      N/A     54  41  61 CALM      30.21S
KIRKSVILLE     CLEAR     50  34  54 E7        30.23S

$$
MOZ066>068-077>081-088>096-101>105-190600-
...SOUTHWEST MISSOURI...

CITY           SKY/WX    TMP DP  RH WIND       PRES   REMARKS
SPRINGFIELD    CLEAR     56  40  55 SE5       30.19S
JOPLIN         CLEAR     55  41  59 E6        30.18S

$$
MOZ032>034-039>042-045>050-055>058-069>072-190600-
...CENTRAL MISSOURI...

CITY           SKY/WX    TMP DP  RH WIND       PRES   REMARKS
COLUMBIA       NOT AVBL
JEFFERSON CITY CLEAR     51  42  71 CALM      30.23R
ROLLA          CLEAR     54  40  59 SE7       30.23R
SEDALIA        CLEAR     54  42  64 SE8       30.21S
WHITEMAN AFB   CLEAR     54  40  57 SE6       30.20R
OSAGE BEACH    CLEAR     57  37  47 E5        30.23S

$$
MOZ051-052-059>065-190600-
...EAST CENTRAL MISSOURI...

CITY           SKY/WX    TMP DP  RH WIND       PRES   REMARKS
ST LOUIS INTL  CLEAR     59  40  49 CALM      30.25S
SPIRIT OF STL  CLEAR     48  41  76 CALM      30.24S
ST CHARLES     CLEAR     51  44  77 N3        30.24S

$$
MOZ072>076-082>087-097>100-106>115-190600-
...SOUTH CENTRAL AND SOUTHEAST MISSOURI...

CITY           SKY/WX    TMP DP  RH WIND       PRES   REMARKS
CAPE GIRARDEAU CLEAR     53  46  77 CALM      30.22R
FARMINGTON     CLEAR     52  41  66 CALM      30.26R
POPLAR BLUFF   CLEAR     59  43  55 NE3       30.20S
WEST PLAINS    CLEAR     52  41  66 CALM      30.24R

$$



USA.gov is the U.S. government's official web portal to all federal, state and local government web resources and services.